Total_Precipitation_Accumulation
0.22 0.26 0.34 0.40 0.35 0.22 0.07 0.01 0.00 0.01 0.01 0.03 0.02 0.01 0.01 0.02 0.03 0.04 0.03 0.03 0.04 0.08 0.13 0.28 0.40 0.48 0.54 0.59 0.59 0.59 0.59 0.60 0.66 0.68 0.72 0.76 0.80 0.84 0.94 0.99 0.98 0.97 1.00 1.02 1.07 1.07 1.05 1.00 0.93
0.22 0.33 0.44 0.51 0.31 0.13 0.04 0.01 0.01 0.01 0.02 0.03 0.02 0.01 0.01 0.02 0.02 0.03 0.04 0.03 0.04 0.06 0.11 0.23 0.39 0.49 0.57 0.60 0.61 0.60 0.62 0.64 0.69 0.73 0.77 0.80 0.83 0.87 0.94 0.98 1.02 0.98 0.98 1.05 1.05 1.05 1.06 1.05 1.01
0.34 0.47 0.52 0.52 0.30 0.09 0.02 0.01 0.01 0.02 0.03 0.03 0.02 0.02 0.02 0.03 0.03 0.04 0.04 0.04 0.05 0.08 0.12 0.23 0.41 0.53 0.63 0.66 0.65 0.66 0.70 0.73 0.78 0.80 0.85 0.89 0.92 0.94 0.97 0.96 0.96 0.94 0.89 0.91 0.92 0.97 1.06 1.07 1.01
0.52 0.67 0.64 0.49 0.22 0.08 0.02 0.01 0.01 0.02 0.03 0.03 0.01 0.02 0.03 0.03 0.03 0.05 0.05 0.05 0.08 0.12 0.17 0.28 0.45 0.60 0.71 0.74 0.71 0.71 0.78 0.83 0.88 0.92 0.96 1.01 1.08 1.07 1.05 1.00 0.99 0.92 0.89 0.88 0.89 0.94 1.03 1.03 0.98
0.67 0.78 0.68 0.43 0.15 0.05 0.02 0.01 0.02 0.02 0.02 0.03 0.02 0.03 0.03 0.03 0.03 0.05 0.08 0.10 0.12 0.17 0.26 0.36 0.54 0.72 0.81 0.85 0.82 0.81 0.87 0.92 0.96 1.00 1.05 1.11 1.15 1.14 1.08 1.04 0.99 0.98 0.96 0.92 0.91 0.96 1.04 1.00 0.92
0.81 0.83 0.59 0.30 0.10 0.03 0.02 0.01 0.02 0.03 0.03 0.03 0.03 0.04 0.05 0.05 0.06 0.08 0.10 0.12 0.14 0.20 0.31 0.46 0.72 0.83 0.88 0.96 0.97 0.93 0.99 1.05 1.07 1.11 1.17 1.22 1.21 1.18 1.19 1.10 1.01 1.04 1.03 0.95 0.93 0.97 1.02 0.96 0.91
0.85 0.73 0.44 0.21 0.09 0.05 0.04 0.03 0.04 0.04 0.04 0.04 0.04 0.05 0.06 0.09 0.10 0.12 0.14 0.17 0.23 0.32 0.44 0.56 0.76 0.89 1.00 1.10 1.14 1.11 1.13 1.18 1.18 1.24 1.28 1.31 1.29 1.26 1.24 1.17 1.07 1.06 1.05 1.08 1.02 0.97 0.94 0.91 0.87
0.87 0.80 0.43 0.23 0.14 0.09 0.06 0.06 0.05 0.05 0.05 0.06 0.07 0.08 0.08 0.10 0.12 0.18 0.22 0.29 0.37 0.45 0.55 0.68 0.81 0.93 1.04 1.18 1.27 1.31 1.33 1.35 1.40 1.41 1.33 1.32 1.40 1.44 1.39 1.25 1.17 1.12 1.09 1.11 1.12 1.05 0.94 0.88 0.86
0.98 0.97 0.49 0.23 0.17 0.12 0.09 0.10 0.06 0.05 0.07 0.09 0.09 0.07 0.10 0.13 0.18 0.27 0.36 0.46 0.54 0.61 0.68 0.84 0.94 1.03 1.11 1.20 1.29 1.50 1.63 1.65 1.63 1.62 1.48 1.49 1.49 1.48 1.43 1.29 1.22 1.13 1.13 1.10 1.16 1.17 1.08 0.97 0.90
1.09 0.83 0.40 0.20 0.18 0.16 0.13 0.13 0.10 0.10 0.12 0.13 0.12 0.11 0.15 0.22 0.28 0.33 0.38 0.45 0.56 0.61 0.74 0.91 1.09 1.18 1.30 1.33 1.42 1.59 1.71 1.78 1.75 1.52 1.52 1.59 1.48 1.45 1.39 1.39 1.39 1.26 1.23 1.19 1.16 1.19 1.16 1.06 0.90
0.91 0.59 0.30 0.22 0.20 0.22 0.20 0.17 0.15 0.15 0.15 0.14 0.16 0.16 0.21 0.30 0.35 0.39 0.43 0.48 0.57 0.64 0.77 0.94 1.18 1.37 1.47 1.44 1.42 1.51 1.62 1.72 1.77 1.56 1.40 1.44 1.50 1.54 1.56 1.46 1.50 1.46 1.37 1.36 1.27 1.24 1.12 1.00 0.93
0.68 0.44 0.31 0.28 0.25 0.28 0.27 0.23 0.21 0.16 0.13 0.16 0.20 0.21 0.25 0.34 0.39 0.44 0.47 0.49 0.60 0.73 0.85 1.02 1.20 1.43 1.56 1.61 1.54 1.53 1.56 1.62 1.66 1.64 1.56 1.47 1.48 1.46 1.39 1.36 1.29 1.29 1.22 1.22 1.22 1.11 1.03 0.95 0.89
0.56 0.41 0.32 0.31 0.32 0.33 0.34 0.30 0.24 0.16 0.12 0.18 0.25 0.27 0.31 0.35 0.45 0.54 0.57 0.57 0.63 0.77 0.90 1.13 1.31 1.47 1.65 1.77 1.74 1.70 1.68 1.54 1.62 1.71 1.78 1.65 1.49 1.42 1.38 1.31 1.28 1.23 1.17 1.13 1.09 1.00 0.94 0.89 0.85
0.49 0.43 0.36 0.31 0.33 0.37 0.42 0.39 0.32 0.20 0.16 0.26 0.31 0.33 0.36 0.39 0.50 0.60 0.68 0.67 0.65 0.78 0.92 1.20 1.42 1.53 1.71 1.79 1.77 1.76 1.81 1.69 1.71 1.76 1.74 1.80 1.73 1.55 1.52 1.48 1.34 1.27 1.21 1.14 1.11 1.04 0.97 0.91 0.85
0.50 0.58 0.48 0.37 0.34 0.38 0.48 0.53 0.37 0.23 0.24 0.32 0.37 0.40 0.44 0.45 0.54 0.64 0.72 0.75 0.72 0.80 0.96 1.22 1.46 1.64 1.76 1.77 1.83 1.85 1.87 1.88 1.81 1.80 1.80 1.85 1.82 1.77 1.67 1.65 1.55 1.39 1.33 1.29 1.23 1.20 1.12 1.05 0.94
0.75 0.92 0.76 0.45 0.37 0.42 0.60 0.58 0.30 0.25 0.32 0.34 0.42 0.44 0.47 0.47 0.52 0.66 0.80 0.92 0.88 0.92 0.99 1.17 1.45 1.63 1.78 1.83 1.87 1.86 1.94 1.96 1.95 1.96 1.93 1.89 1.94 1.94 1.93 1.80 1.69 1.50 1.48 1.46 1.40 1.32 1.27 1.15 1.04
1.09 1.04 0.72 0.48 0.40 0.49 0.65 0.51 0.28 0.27 0.37 0.40 0.47 0.48 0.49 0.53 0.53 0.63 0.81 0.96 0.99 0.99 1.07 1.21 1.41 1.57 1.73 1.94 2.04 1.95 1.96 2.04 2.08 2.05 2.10 1.98 1.99 2.06 2.10 2.10 1.95 1.78 1.69 1.59 1.49 1.38 1.31 1.25 1.16
0.94 0.74 0.56 0.47 0.44 0.50 0.57 0.44 0.30 0.29 0.37 0.43 0.49 0.51 0.49 0.57 0.54 0.58 0.74 0.97 1.04 1.07 1.16 1.27 1.41 1.58 1.75 2.04 2.22 2.27 2.14 2.12 2.11 2.05 2.00 2.01 2.00 2.03 2.05 2.11 2.16 2.10 2.00 1.87 1.72 1.58 1.41 1.29 1.23
0.59 0.66 0.57 0.39 0.38 0.51 0.51 0.41 0.30 0.29 0.36 0.44 0.48 0.53 0.49 0.53 0.58 0.62 0.72 0.89 1.07 1.12 1.16 1.31 1.36 1.53 1.75 1.95 2.12 2.16 2.21 2.12 2.07 2.00 1.93 1.88 1.91 1.93 1.96 1.92 2.03 2.08 2.02 1.92 1.85 1.76 1.69 1.55 1.40
0.69 0.77 0.62 0.43 0.36 0.55 0.55 0.45 0.32 0.30 0.35 0.43 0.44 0.52 0.54 0.54 0.61 0.68 0.75 0.86 1.09 1.17 1.14 1.25 1.39 1.51 1.58 1.72 1.88 1.97 2.09 2.15 2.09 2.02 2.04 1.93 1.85 1.82 1.91 1.92 1.87 1.88 1.90 1.89 1.82 1.77 1.74 1.69 1.55
0.78 0.69 0.57 0.52 0.50 0.60 0.68 0.64 0.40 0.33 0.31 0.39 0.43 0.50 0.62 0.65 0.65 0.69 0.76 0.86 1.08 1.23 1.22 1.21 1.33 1.49 1.57 1.72 1.94 2.06 2.23 2.28 2.31 2.12 2.00 1.97 1.92 1.82 1.78 1.86 1.89 1.83 1.80 1.79 1.76 1.69 1.63 1.63 1.52
0.84 0.48 0.49 0.57 0.86 0.96 0.83 0.97 0.50 0.35 0.33 0.39 0.45 0.49 0.62 0.67 0.66 0.72 0.74 0.84 1.00 1.13 1.24 1.29 1.41 1.53 1.57 1.75 1.96 1.98 2.11 2.12 2.06 1.94 1.86 1.83 1.86 1.83 1.76 1.75 1.80 1.84 1.77 1.68 1.65 1.66 1.63 1.66 1.66
0.70 0.45 0.56 0.70 0.96 1.12 0.84 0.94 0.55 0.32 0.38 0.40 0.45 0.48 0.57 0.66 0.63 0.71 0.74 0.73 0.85 0.98 1.14 1.25 1.42 1.59 1.64 1.68 1.87 1.94 1.90 1.94 2.00 2.03 1.95 1.88 1.85 1.79 1.74 1.72 1.71 1.71 1.70 1.61 1.57 1.61 1.64 1.66 1.65
0.65 0.75 0.92 1.06 1.50 1.77 0.75 0.72 0.60 0.50 0.58 0.48 0.43 0.50 0.59 0.65 0.68 0.70 0.69 0.68 0.79 0.94 1.09 1.21 1.33 1.48 1.62 1.65 1.75 1.92 1.88 1.84 1.92 2.06 2.10 2.02 1.92 1.84 1.71 1.63 1.64 1.60 1.54 1.51 1.49 1.50 1.49 1.54 1.57
1.02 1.54 2.28 2.44 2.41 1.47 0.42 0.56 0.68 0.53 0.52 0.57 0.56 0.56 0.60 0.64 0.70 0.74 0.64 0.67 0.73 0.84 1.01 1.15 1.31 1.37 1.45 1.54 1.63 1.71 1.85 1.83 1.80 1.81 1.89 2.04 2.01 1.87 1.76 1.69 1.59 1.55 1.48 1.42 1.42 1.45 1.45 1.40 1.43
1.12 1.39 1.87 1.84 1.25 0.58 0.34 0.57 0.61 0.44 0.38 0.39 0.42 0.52 0.56 0.59 0.64 0.68 0.65 0.67 0.70 0.75 0.87 1.03 1.16 1.32 1.44 1.50 1.55 1.60 1.70 1.84 1.77 1.74 1.67 1.77 1.85 1.74 1.64 1.69 1.62 1.53 1.51 1.50 1.47 1.45 1.44 1.45 1.38
1.00 1.10 0.98 1.31 0.94 0.64 0.53 0.50 0.41 0.22 0.22 0.26 0.32 0.44 0.57 0.65 0.69 0.65 0.66 0.69 0.68 0.74 0.80 0.95 1.04 1.19 1.40 1.53 1.55 1.58 1.63 1.72 1.74 1.70 1.67 1.67 1.69 1.70 1.67 1.68 1.67 1.60 1.61 1.65 1.65 1.60 1.48 1.45 1.44
0.78 0.96 1.20 1.69 1.43 0.82 0.52 0.50 0.58 0.41 0.39 0.34 0.37 0.46 0.58 0.69 0.76 0.73 0.69 0.74 0.73 0.74 0.78 0.85 1.01 1.11 1.26 1.46 1.62 1.61 1.57 1.57 1.67 1.73 1.75 1.72 1.68 1.69 1.70 1.71 1.72 1.66 1.60 1.66 1.73 1.67 1.57 1.55 1.50
0.86 1.16 1.46 1.56 1.21 0.99 0.68 0.67 0.70 0.60 0.58 0.51 0.47 0.51 0.61 0.70 0.78 0.73 0.67 0.68 0.72 0.75 0.84 0.87 0.96 1.07 1.18 1.28 1.47 1.58 1.57 1.56 1.62 1.68 1.66 1.69 1.70 1.69 1.65 1.61 1.65 1.71 1.69 1.64 1.69 1.66 1.60 1.59 1.52
0.73 1.01 1.28 1.60 1.18 0.77 0.72 0.70 0.54 0.51 0.54 0.50 0.48 0.49 0.54 0.64 0.70 0.71 0.64 0.65 0.73 0.81 0.88 0.96 0.99 0.98 1.07 1.18 1.30 1.45 1.54 1.55 1.57 1.56 1.60 1.67 1.69 1.67 1.60 1.56 1.57 1.63 1.66 1.64 1.65 1.63 1.58 1.57 1.53